C/2001 C1 ( LINEAR )

Japanese version
Home page
Updated on July 29, 2002

---------------------------------------------------------------------

* Profile

Discovery Date February 1, 2001
Magnitude 18.9 mag
Discoverer Lincoln Laboratory Near-Earth Asteroid Research project

* Orbital Elements

Epoch 2002 Mar. 27.0 TT = JDT 2452360.5
T 2002 Mar. 28.2977 TT                                  MPCN
q   5.104599             (2000.0)            P               Q
z  +0.000021       Peri.  219.9370      -0.5098576      +0.6868364
 +/-0.000003       Node    33.7113      -0.3280849      +0.4013601
e   0.999893       Incl.   68.9519      -0.7952393      -0.6059421
From 201 observations 2000 Apr. 29-2002 June 3, mean residual 0".7.

* Finding Charts

* Magnitudes Graph

        m1 = 5.5 + 5 log d + 10.0 log r

---------------------------------------------------------------------

The orbital elements are published at the MPC Ephemerides and Orbital Elements.
The charts are made with StellaNavigator Ver.2.0 for Windows (AstroArts / ASCII).
The magnitudes graphs are made with Comet for Windows.

---------------------------------------------------------------------

Copyright(C) Seiichi Yoshida (comet@aerith.net). All rights reserved.